User: anonymous   Login
Location: Unspecified
(0.0000°N, 0.0000°E)
Time: 18:26:15
(UTC+00:00)
Language:

SEEDS - Orbit

View from above orbital plane
View from above orbital plane
View from above satellite
View from above satellite

Ground track
Ground track

The orbit data is extracted from the following two-line orbital elements,

1 32791U 08021J   24204.38939058  .00014785  00000-0  10531-2 0  9997
2 32791  97.6929 175.3833 0005895 164.3051 195.8359 15.04690865881813
Epoch (UTC): 22 July 2024 09:20:43
Eccentricity: 0.0005895
inclination: 97.6929°
perigee height: 548 km
apogee height: 556 km
right ascension of ascending node: 175.3833°
argument of perigee: 164.3051°
revolutions per day: 15.04690865
mean anomaly at epoch: 195.8359°
orbit number at epoch: 88181

The dashed part of the orbit path shows where the satellite is in the earth's shadow,  

DLR